www.pogodaiklimat.ru

Погода и климат >> Архив погоды >> Иордания >> Аэропорт Принц Хассан


ПОГОДА в Аэропорту Принц Хассан

  • Прогноз погоды в Аэропорту Принц Хассан
  • Монитор погоды в Аэропорту Принц Хассан

АРХИВ ПОГОДЫ в Аэропорту Принц Хассан

Время (UTC), дата Ветер
(напр.,м/с)
 
Видим.   Явления Облачность Т
(С)
Тd
(С)
f
(%)
Тe
(С)
Тes
(С)
Комфортность P
(гПа)
Po
(гПа)
Тmin
(С)
Tmax
(С)
R
(мм)
R24
(мм)
S
(см)
15 13.09 штиль 0 10 км ясно +32.4 +9.6 25 +32 +32 жарко 1006.3 932.7
18 13.09 СЗ 5 10 км ясно +28.6 +12.4 37 +30 +30 жарко 1007.2 933.6 +34.0
21 13.09 штиль 0 10 км ясно +25.4 +11.9 43 +27 +27 жарко 1007.1 933.6
00 14.09 штиль 0 10 км ясно +22.0 +15.5 67 +26 +26 душно 1006.9 933.4
03 14.09 штиль 0 10 км ясно +20.0 +16.8 82 +22 +22 комфорт 1007.0 933.2
06 14.09 штиль 0 10 км ясно +27.0 +14.0 45 +29 +38 жарко 1007.0 933.6 +19.6
09 14.09 штиль 0 10 км ясно +31.4 +9.5 26 +31 +53 опасность
солнечного
удара
1006.3 933.1
12 14.09 СВ 4 10 км ясно +35.2 +9.2 20 +34 +41 очень
жарко
1004.2 931.2
15 14.09 СЗ 5 10 км ясно +33.0 +12.1 28 +33 +33 жарко 1004.5 931.0
18 14.09 З 5 10 км ясно +28.8 +14.4 41 +31 +31 жарко 1006.0 932.7 +36.0
21 14.09 СЗ 6 10 км ясно +24.8 +16.6 60 +28 +28 жарко 1006.9 933.6
00 15.09 штиль 0 10 км ясно +22.0 +12.5 55 +25 +25 комфорт 1006.1 933.0
06 15.09 штиль 0 10 км ясно +23.6 +12.0 48 +25 +34 комфорт 1009.1 935.2 +19.4
09 15.09 З 4 10 км ясно +28.4 +13.0 39 +30 +40 жарко 1008.6 934.8
12 15.09 З 5 10 км ясно +30.0 +10.8 30 +30 +35 жарко 1008.2 934.3
15 15.09 СЗ 3 10 км ясно +29.0 +12.5 36 +30 +30 жарко 1008.5 934.2
18 15.09 СЗ 4 10 км ясно +25.0 +16.1 58 +28 +28 жарко 1010.1 1025.7 +31.0
21 15.09 штиль 0 10 км ясно +22.0 +14.8 64 +25 +25 комфорт 1009.9 935.7
00 16.09 СЗ 4 10 км ясно +20.0 +13.6 67 +22 +22 комфорт 1010.0 935.7
03 16.09 штиль 0 10 км ясно +17.4 +13.3 77 +17 +17 1011.1 936.3
06 16.09 штиль 0 10 км ясно +12.4 +15.9 100 +12 +20 1012.6 937.7 +17.2
09 16.09 штиль 0 10 км ясно +27.6 +11.4 36 +28 +50 жарко 1012.3 937.8
12 16.09 З 3 10 км ясно +30.6 +8.6 25 +30 +38 жарко 1011.0 936.7
15 16.09 штиль 0 10 км ясно +30.0 +11.7 32 +31 +31 жарко 1011.4 936.7
18 16.09 штиль 0 10 км ясно +26.4 +8.6 32 +26 +26 жарко 1011.8 937.1 +31.5
21 16.09 штиль 0 10 км ясно +24.0 +14.2 54 +26 +26 жарко 1011.9 937.7
00 17.09 штиль 0 10 км ясно +21.0 +14.4 66 +24 +24 комфорт 1011.5 937.3
03 17.09 штиль 0 10 км ясно +19.0 +14.0 73 +20 +20 1011.8 937.3
06 17.09 С 3 10 км ясно +24.2 +14.8 56 +27 +32 жарко 1013.1 938.7 +19.0
09 17.09 штиль 0 10 км ясно +31.2 +10.7 28 +31 +52 опасность
солнечного
удара
1011.9 938.1
12 17.09 штиль 0 10 км ясно +34.4 +10.4 23 +34 +47 очень
жарко
1010.4 936.7
15 17.09 СЗ 3 10 км ясно +34.0 +8.0 20 +32 +33 жарко 1009.6 935.7
21 17.09 С 4 10 км ясно +25.0 +4.6 27 +24 +24 комфорт 1010.7 937.1
00 18.09 С 6 10 км ясно +23.0 +5.8 33 +23 +23 комфорт 1011.4 937.9
03 18.09 С 5 10 км ясно +22.2 +6.7 37 +23 +23 комфорт 1012.4 938.7
06 18.09 СВ 6 10 км ясно +25.2 +8.7 35 +26 +28 жарко 1014.2 940.1 +22.0
09 18.09 штиль 0 10 км ясно +33.5 +8.5 21 +32 +53 опасность
солнечного
удара
1013.2 939.7
12 18.09 Ю 4 10 км ясно +36.6 +8.3 18 +35 +41 очень
жарко
1010.9 937.7
15 18.09 СЗ 4 10 км ясно +36.0 +8.9 19 +34 +35 очень
жарко
1010.0 936.7
18 18.09 С 3 10 км ясно +31.4 +9.5 26 +31 +31 жарко 1011.2 937.6 +38.0
21 18.09 С 8 10 км ясно +30.0 +9.2 27 +29 +29 жарко 1010.4 937.7
00 19.09 СВ 3 10 км ясно +27.0 +6.5 27 +26 +26 жарко 1010.0 837.3
03 19.09 СВ 3 10 км ясно +24.2 +4.4 28 +24 +24 комфорт 1010.4 937.3
06 19.09 СВ 5 10 км ясно +28.0 +5.7 24 +27 +30 жарко 1010.9 937.7 +24.0
09 19.09 Ю 4 10 км ясно +34.8 +7.2 18 +33 +43 жарко 1010.8 938.2
12 19.09 ЮЗ 4 10 км ясно +38.0 +6.8 15 +36 +42 очень
жарко
1009.1 936.4
15 19.09 штиль 0 10 км ясно +38.6 +8.1 16 +37 +37 очень
жарко
1008.7 936.0
18 19.09 штиль 0 10 км ясно +33.5 +8.5 21 +32 +32 жарко 1009.5 936.6 +39.5
21 19.09 штиль 0 10 км ясно +29.0 +8.1 27 +28 +28 жарко 1009.4 936.8
00 20.09 штиль 0 10 км ясно +27.0 +7.4 29 +27 +27 жарко 1009.8 937.4
03 20.09 З 3 10 км ясно +24.4 +7.5 34 +25 +25 комфорт 1008.7 936.0
06 20.09 штиль 0 10 км ясно +29.2 +9.5 29 +29 +37 жарко 1009.2 936.5 +23.5
09 20.09 ЮЗ 3 10 км ясно +35.8 +8.5 19 +34 +47 очень
жарко
1008.4 936.0

 

Местоположение метеостанции Аэропорт Принц Хассан (Иордания): широта 32.20 долгота 37.13 высота над уровнем моря 674 м.

В архиве по умолчанию представлена погода в Аэропорту Принц Хассан за последнюю неделю. Архивные данные за месяц целиком и за предыдущие месяцы, начиная с января 2011 года, Вы можете получить, выбрав интересующий диапазон дат из раскрывающегося списка и нажав кнопку "Ввод!".


*Определитесь, кто Вы:
робот инопланетянин человек

Внимание! Время в таблицах - всемирное. Для получения местного времени необходимо прибавить поправку, которая равна 2 ч.

Смотрите также архив погоды в соседних городах и на ближайших метеорологических станциях:

Погода в Эль-Мафраке (Иордания) (85 км)
Погода в Гураяте (Саудовская Аравия) (90 км)
Погода в Руваишеде (Иордания) (106 км)
Погода в Даръа (Сирия) (106 км)
Погода в Аммане (Иордания) (111 км)
Погода в Аэропорту Королева Алия (Иордания) (121 км)
Погода в Ирбиде (Иордания) (126 км)
Погода в Дамаске (Сирия) (147 км)
Погода в Тураифе (Саудовская Аравия) (162 км)
Погода в Цфате (Израиль) (175 км)

Пояснения к столбцам:

Ветер - указаны скорость ветра в м/с - средняя за 10 мин, порывы в срок и между сроками (в фигурных скобках) и направление, откуда дует ветер: С - северный, СВ - северо-восточный, В - восточный, ЮВ - юго-восточный, Ю - южный, ЮЗ - юго-западный, З - западный, СЗ - северо-западный.
Видимость - горизонтальная дальность видимости в метрах или километрах. При видимости от 1 до 10 км при отсутствии осадков обычно наблюдается дымка, при ухудшении видимости до 1 км и менее - туман. В сухую погоду видимость может ухудшаться дымом, пылью или мглою.
Явления - указаны атмосферные явления, наблюдавшиеся в срок или в последний час перед сроком; фигурными скобками обозначены явления, наблюдавшиеся между сроками (за 1-3 часа до срока); квадратными скобками обозначены град или гололедные отложения с указанием их диаметра в мм.
Облачность - указаны через наклонную черту общая и нижняя облачность в баллах и высота нижней границы облаков в метрах; квадратными скобками обозначены формы облаков: Ci - перистые, Cs - перисто-слоистые, Cc - перисто-кучевые, Ac - высококучевые, As - высокослоистые, Sc - слоисто-кучевые, Ns - слоисто-дождевые, Cu - кучевые, Cb - кучево-дождевые. Подробнее классификацию облаков см. в Атласе облаков (PDF).
T - Температура воздуха - температура, измеренная на высоте 2 м над землей.
Td - Температура точки росы - температура, при понижении до которой содержащийся в воздухе водяной пар достигнет насыщения.
f - Относительная влажность воздуха - влажноcть воздуха, измеренная на высоте 2 м над землей.
Te - Эффективная температура - температура, которую ощущает одетый по сезону человек в тени. Характеристика душности погоды. При расчете учитывается влияние влажности воздуха и скорости ветра на теплоощущения человека.
Tes - Эффективная температура на солнце - температура, которую ощущает человек, с поправкой на солнечный нагрев. Характеристика знойности погоды. Зависит от высоты солнца над горизонтом, облачности и скорости ветра. Ночью, в пасмурную погоду, а также при ветре 12 м/с и более поправка равна нулю.
P - Атмосферное давление - приведенное к уровню моря атмосферное давление.
Po - Атмосферное давление - измеренное на уровне метеостанции атмосферное давление.
Tmin - Минимальная температура - минимум температуры воздуха на высоте 2 м над землей.
Tmax - Максимальная температура - максимум температуры воздуха на высоте 2 м над землей.
R - Количество осадков - Количество выпавших осадков за период времени, мм. При наведении курсора мыши на число - период времени, за который выпало указанное количество осадков.
R24 - Количество осадков - Количество выпавших осадков за 24 часа, мм.
S - Снежный покров - Высота снежного покрова, см. При наведении курсора мыши на число - состояние снежного покрова и степень покрытия местности в баллах.